Tracking 20242 objects as of 24-Jan-2020
HD Live streaming from Space Station
objects crossing your sky now

BPA 3/SL-24 R/B

Track BPA 3/SL-24 R/B now!
10-day predictions


NORAD ID: 39448
Int'l Code: 2013-066AJ
Perigee: 597.8 km
Apogee: 1,615.8 km
Inclination: 97.7 °
Period: 107.3 minutes
Semi major axis: 7477 km
RCS: Unknown
Launch date: November 21, 2013
Source: Commonwealth of Independent States (former USSR) (CIS)
Launch site: Orenburg, Russia (OREN)

Note: This is a ROCKET BODY
aabbcc
Your satellite tracking list
Your tracking list is empty




NASA's NSSDC Master Catalog

Two Line Element Set (TLE):
1 39448U 13066AJ  20023.56912670 -.00000007 +00000-0 +10785-4 0  9990
2 39448 097.7005 333.5827 0680701 034.9367 329.4541 13.42593987302298
Source of the keplerian elements: AFSPC